Back to catalog

STARLINK-38172

AliveCommunicationsSSO
NORAD 100214·PAYLOAD·🇺🇸 United States

Launched Aug 4, 2026 from Vandenberg Space Force Base

Loading…

Next Passes (next 24 hours)

TLE

FreshSource: Space-Track

Epoch: Sep 14, 2026, 14:59 UTC

1 A0214U 26177B   26257.62469244 -.00166130  00000-0 -28727-2 0  9996
2 A0214  97.2837 308.4046 0001049 153.7246 206.4060 15.51506321  6454

Track STARLINK-38172 in real time with AllMySat

Download on the App Store